Location: Haram ta Haram Freeway
(35.0583°N, 51.4202°E)
Time: 06:18:19
(UTC+04:30)

Hubble Space Telescope - Pass Details

Date: 31 July 2021
Orbit: 535 x 539 km, 28.5° (Epoch: 19 September)

Event Time Altitude Azimuth Distance (km) Brightness Sun altitude
Rises 20:43:21 0° 261° (W) 2,669 5.3 -7.3°
Reaches altitude 10° 20:45:53 10° 247° (WSW) 1,777 4.0 -7.8°
Maximum altitude 20:49:17 25° 192° (SSW) 1,099 2.2 -8.4°
Enters shadow 20:52:31 11° 137° (SE) 1,730 2.7 -9.0°
